Погода в Ювяскюля

Финляндия     62°14′21″N   25°44′46″E
темп.,
°C
ветер,
м/с
пор.,
м/с
влажн.,
%
обл.,
%
осадки,
мм/ч
давл.,
гПа
погр.,
м
28 ноября, вс
вс2823:00−11ссв1598100 0.0 1010108
02:00−10св2796100 0.0 1009163
05:00−10св2994100 0.0 1008255
08:00−9св3987100 0.0 1008294
11:00−9св2892100 0.0 1009328
14:00−8св3890100 0.0 1009344
17:00−8св3989100 0.0 1009389
20:00−8св2791100 0.0 1010306
29 ноября, пн
пн2923:00−8св2794100 0.0 1012250
02:00−8всв2792100 0.0 1012270
05:00−8всв2890100 0.0 1012258
08:00−9всв2885100 0.0 1012255
11:00−9в3108662 0.0 1012480
14:00−9всв3890100 0.0 1009445
17:00−10всв3990100 0.0 1008458
20:00−9св41086100 0.0 1005512
30 ноября, вт
вт3023:00−9св41082100 0.0 1002598
02:00−9св41085100 0.0 998576
05:00−8ссв41080100 0.0 994708
08:00−9ссв51191100 0.4 992589
11:00−8с41087100 0.2 989670
14:00−8с4989100 0.3 986872
17:00−8ссз41188100 0.1 985914
20:00−8ссз51087100 0.3 986726
1 декабря, ср
ср123:00−8ссз51187100 0.1 985693
02:00−9сз51187100 0.1 986628
05:00−9сз51188100 0.0 986619
08:00−9сз5128797 0.0 987638
11:00−8сз5118296 0.0 988929
14:00−7сз41183100 0.1 9881009
17:00−8зсз4108795 0.1 989658
20:00−9зсз4109280 0.1 989414
2 декабря, чт
чт223:00−11з389557 0.0 989256
02:00−12з269623 0.0 989134
05:00−14зюз119859 0.0 98915
08:00−14юз119754 0.0 98910
11:00−12сз11936 0.0 99038
14:00−12ссз119761 0.0 99010
17:00−14сз119862 0.0 9929
20:00−14сз1198100 0.0 9939